www.pogodaiklimat.ru

Погода и климат >> Архив погоды >> Россия >> Псковская область >> Псков


АРХИВ ПОГОДЫ в Пскове

Время (UTC), дата Ветер
(напр.,м/с)
 
Видим.   Явления Облачность Т
(С)
Тd
(С)
f
(%)
Тe
(С)
Тes
(С)
Комфортность P
(гПа)
Po
(гПа)
Тmin
(С)
Tmax
(С)
R
(мм)
R24
(мм)
S
(см)
21 16.05 СВ 1 20 км ясно +6.1 +3.5 83 +5 +5 прохладно 1026.6 1021.1
00 17.05 СВ 1 20 км ясно +3.3 +2.3 93 +2 +2 прохладно 1026.6 1021.0
03 17.05 В 2 20 км ясно +7.2 +1.9 69 +5 +6 прохладно 1026.9 1021.4 +3.1
06 17.05 В 2 20 км 5/0
[Ci fib]
+15.6 +2.3 41 +16 +21 тепло 1026.6 1021.2 +3.1
09 17.05 В 2 20 км 5/0
[Ci fib]
+18.9 -0.7 27 +20 +31 тепло 1025.4 1020.1
12 17.05 В 3 20 км 5/0
[Ci fib]
+21.0 -1.8 22 +21 +30 комфорт 1023.9 1018.6
15 17.05 В 3 20 км 5/0
[Ci fib]
+21.5 -3.9 18 +21 +24 комфорт 1022.3 1017.1
18 17.05 ЮВ 1 20 км 3/0
[Ci fib]
+18.2 +0.1 29 +19 +19 тепло 1021.9 1016.6 +22.0
21 17.05 ЮВ 2 20 км ясно +8.5 +4.8 78 +7 +7 прохладно 1022.5 1017.0
00 18.05 штиль 0 20 км ясно +5.3 +3.6 89 +4 +4 прохладно 1022.7 1017.2
03 18.05 штиль 0 20 км ясно +5.9 +5.0 94 +5 +6 прохладно 1022.7 1017.2 +3.5
06 18.05 В 1 20 км 3/0
[Ci fib]
+17.3 +4.5 43 +18 +25 тепло 1022.3 1017.0 +3.5
09 18.05 В 3 20 км ясно +21.7 +1.5 26 +21 +32 комфорт 1021.3 1016.1
12 18.05 В 2 20 км ясно +24.0 +0.9 22 +23 +35 комфорт 1019.7 1014.5
15 18.05 В 3 20 км ясно +24.4 +1.7 23 +23 +27 комфорт 1018.2 1013.0
18 18.05 В 1 20 км 3/0
[Ac lent]
+19.7 +5.0 38 +21 +21 комфорт 1017.6 1012.4 +25.3
21 18.05 В 1 20 км 6/0
[Ac trans]
+10.9 +6.2 73 +11 +11 по сезону 1018.8 1013.4
00 19.05 В 1 20 км 9/6 600 м
[Sc Ac lent]
+8.0 +6.4 90 +7 +7 по сезону 1018.9 1013.3 +7.9
03 19.05 В 2 20 км 9/6 600 м
[Sc Ac lent]
+12.2 +5.7 64 +11 +12 по сезону 1019.4 1014.0 +7.9
06 19.05 ЮВ 2 20 км 4/0
[Cs]
+18.5 +6.7 46 +19 +25 тепло 1019.7 1013.8 +7.9
09 19.05 ЮВ 2 20 км 5/0
[Ci fib]
+23.4 +4.2 29 +23 +35 комфорт 1018.6 1013.4
12 19.05 Ю 2 20 км 8/0
[Ac trans Ci fib]
+26.4 +4.3 24 +25 +33 комфорт 1017.7 1012.6
15 19.05 ЮВ 3 20 км 9/6 600 м
[Sc diur, vesp Ac trans]
+25.3 +3.9 25 +24 +25 комфорт 1017.0 1011.9
18 19.05 В 2 20 км 9/6 600 м
[Sc diur, vesp Ac trans]
+21.9 +6.8 38 +23 +23 комфорт 1016.6 1011.4 +26.7
21 19.05 В 2 20 км 8/4 600 м
[Sc diur, vesp Ac trans]
+17.4 +8.1 54 +18 +18 тепло 1017.2 1011.9
00 20.05 штиль 0 20 км 8/4 600 м
[Sc diur, vesp Ac trans]
+12.4 +8.1 75 +12 +12 тепло 1017.6 1012.2
03 20.05 ЮВ 1 20 км 5/3 600 м
[Sc diur, vesp Ac trans Ci fib]
+11.3 +8.9 85 +11 +11 по сезону 1017.9 1012.5 +9.7
06 20.05 Ю 1 20 км 3/0
[Ci fib]
+10.3 +10.3 100 +10 +17 по сезону 1017.9 1012.7 +9.7
09 20.05 ЮВ 3 20 км 3/3 1000 м
[Cu hum]
+26.5 +8.4 32 +27 +34 жарко 1017.2 1012.1
12 20.05 Ю 3 20 км 4/4 1000 м
[St]
+28.0 +5.6 24 +27 +33 жарко 1016.5 1011.4
15 20.05 Ю 2 20 км 4/4 1000 м
[Cu hum]
+26.8 +4.5 24 +26 +28 жарко 1015.4 1010.3
18 20.05 ЮВ 2 20 км 5/3 600 м
[Sc diur, vesp Ci fib]
+22.3 +6.0 35 +23 +23 комфорт 1014.8 1009.6 +28.7
21 20.05 Ю 1 20 км 6/6 600 м
[Sc diur, vesp]
+16.3 +8.7 61 +17 +17 тепло 1015.4 1010.1
00 21.05 штиль 0 20 км 6/6 600 м
[Sc diur, vesp]
+12.3 +8.9 80 +12 +12 тепло 1015.4 1010.0
03 21.05 штиль 0 20 км 6/3 600 м
[Sc diur, vesp Ac lent]
+12.7 +9.2 79 +12 +13 тепло 1014.8 1009.5 +11.7
06 21.05 ЮВ 1 20 км 8/5 600 м
[Sc Ac lent Cc]
+20.2 +10.4 53 +23 +25 комфорт 1014.3 1009.1 +11.7
09 21.05 ЮВ 2 20 км 9/6 600 м
[Cu Sc Ac lent]
+26.2 +8.5 33 +26 +35 жарко 1013.3 1008.2
12 21.05 ЮВ 2 20 км 9/6 600 м
[Cu Sc Ac lent]
+26.5 +7.6 30 +26 +28 жарко 1012.4 1007.3
15 21.05 ЮВ 2 20 км 9/4 600 м
[Sc Ac trans Cs]
+26.5 +8.3 32 +27 +28 жарко 1011.0 1005.9
18 21.05 ЮВ 1 20 км 9/8 600 м
[Cb cap Ac cast]
+22.3 +12.5 54 +25 +25 комфорт 1010.2 1005.1 +29.9
21 21.05 штиль 0 20 км в посл. час гроза 10/10 600 м
[Cb cap]
+18.6 +13.4 72 +19 +19 тепло 1011.2 1006.0
00 22.05 ЮЗ 2 4000 м гроза, ливневой дождь 10/10 600 м
[Cb cap]
+15.1 +13.8 92 +15 +15 тепло 1011.0 1005.7
03 22.05 ЮВ 1 20 км {гроза, ливн. осадки} 8/5 600 м
[Sc diur, vesp Ac cast Cs]
+15.4 +14.3 93 +16 +16 тепло 1009.9 1004.6 +14.6 7
06 22.05 ЮВ 2 20 км {гроза, ливн. осадки} 8/8 600 м
[Sc diur, vesp]
+18.1 +15.2 83 +19 +20 тепло 1009.7 1004.5 +14.6 7
09 22.05 ЮВ 1 20 км 5/4 600 м
[Sc diur, vesp Ac trans]
+23.5 +15.1 59 +26 +35 жарко 1009.6 1004.5
12 22.05 ЮЗ 1 20 км 8/6 600 м
[Cb calv Ac trans]
+24.3 +13.9 52 +27 +31 жарко 1008.2 1003.1
15 22.05 ЮВ 1 20 км 10/10 600 м
[Cb calv]
+20.7 +14.3 67 +25 +25 комфорт 1008.2 1003.0
18 22.05 штиль 0 20 км 5/3 600 м
[Sc diur, vesp Ac trans]
+19.2 +15.5 79 +21 +21 комфорт 1007.4 1002.2 +26.7
21 22.05 штиль 0 20 км 3/3 600 м
[Sc diur, vesp]
+14.9 +14.3 96 +15 +15 тепло 1007.2 1001.9
00 23.05 Ю 1 20 км ясно +12.2 +11.7 97 +12 +12 тепло 1006.7 1001.4
03 23.05 З 1 4000 м дымка ясно +11.5 +11.0 97 +11 +12 по сезону 1006.3 1001.0 +10.6
06 23.05 С 2 20 км 3/0
[Ci fib]
+19.7 +15.3 76 +22 +29 комфорт 1006.4 1001.2 +10.6
09 23.05 С 2 20 км 8/3 600 м
[Cu hum Ci fib]
+23.6 +13.4 53 +26 +34 жарко 1006.9 1001.8
12 23.05 СВ 3 20 км 8/3 600 м
[Cu hum Ci fib]
+22.4 +13.9 59 +26 +32 жарко 1006.9 1002.2
15 23.05 С 3 20 км 8/3 600 м
[Cu med, cong Ci fib]
+19.4 +12.9 66 +21 +23 комфорт 1007.2 1002.5
18 23.05 В 4 20 км 8/5 600 м
[Sc diur, vesp Ci fib]
+15.5 +10.4 72 +15 +15 по сезону 1010.0 1004.7 +24.6

 

Местоположение метеостанции Псков (Псковская область, Россия): широта 57.82 долгота 28.33 высота над уровнем моря 44 м.

В архиве по умолчанию представлена погода в Пскове за последнюю неделю. Архивные данные за месяц целиком и за предыдущие месяцы, начиная с января 2011 года, Вы можете получить, выбрав интересующий диапазон дат из раскрывающегося списка и нажав кнопку "Ввод!".


*Определитесь, кто Вы:
робот инопланетянин человек

Внимание! Время в таблицах - всемирное. Для получения местного времени необходимо прибавить поправку, которая равна 3 ч.

Смотрите также архив погоды в соседних городах и на ближайших метеорологических станциях:

Погода в Стругах-Красных (Псковская область, Россия) (68 км)
Погода в Выру (Эстония) (78 км)
Погода в Алуксне (Латвия) (89 км)
Погода в Пушкинских Горах (Псковская область, Россия) (95 км)
Погода в Дно (Псковская область, Россия) (96 км)
Погода в Гдове (Псковская область, Россия) (105 км)
Погода в Тарту (Эстония) (108 км)
Погода в Николаевском (Ленинградская область, Россия) (120 км)
Погода в Гулбене (Латвия) (123 км)
Погода в Опочке (Псковская область, Россия) (125 км)

Пояснения к столбцам:

Ветер - указаны скорость ветра в м/с - средняя за 10 мин, порывы в срок и между сроками (в фигурных скобках) и направление, откуда дует ветер: С - северный, СВ - северо-восточный, В - восточный, ЮВ - юго-восточный, Ю - южный, ЮЗ - юго-западный, З - западный, СЗ - северо-западный.
Видимость - горизонтальная дальность видимости в метрах или километрах. При видимости от 1 до 10 км при отсутствии осадков обычно наблюдается дымка, при ухудшении видимости до 1 км и менее - туман. В сухую погоду видимость может ухудшаться дымом, пылью или мглою.
Явления - указаны атмосферные явления, наблюдавшиеся в срок или в последний час перед сроком; фигурными скобками обозначены явления, наблюдавшиеся между сроками (за 1-3 часа до срока); квадратными скобками обозначены град или гололедные отложения с указанием их диаметра в мм.
Облачность - указаны через наклонную черту общая и нижняя облачность в баллах и высота нижней границы облаков в метрах; квадратными скобками обозначены формы облаков: Ci - перистые, Cs - перисто-слоистые, Cc - перисто-кучевые, Ac - высококучевые, As - высокослоистые, Sc - слоисто-кучевые, Ns - слоисто-дождевые, Cu - кучевые, Cb - кучево-дождевые. Подробнее классификацию облаков см. в Атласе облаков (PDF).
T - Температура воздуха - температура, измеренная на высоте 2 м над землей.
Td - Температура точки росы - температура, при понижении до которой содержащийся в воздухе водяной пар достигнет насыщения.
f - Относительная влажность воздуха - влажноcть воздуха, измеренная на высоте 2 м над землей.
Te - Эффективная температура - температура, которую ощущает одетый по сезону человек в тени. Характеристика душности погоды. При расчете учитывается влияние влажности воздуха и скорости ветра на теплоощущения человека.
Tes - Эффективная температура на солнце - температура, которую ощущает человек, с поправкой на солнечный нагрев. Характеристика знойности погоды. Зависит от высоты солнца над горизонтом, облачности и скорости ветра. Ночью, в пасмурную погоду, а также при ветре 12 м/с и более поправка равна нулю.
P - Атмосферное давление - приведенное к уровню моря атмосферное давление.
Po - Атмосферное давление - измеренное на уровне метеостанции атмосферное давление.
Tmin - Минимальная температура - минимум температуры воздуха на высоте 2 м над землей.
Tmax - Максимальная температура - максимум температуры воздуха на высоте 2 м над землей.
R - Количество осадков - Количество выпавших осадков за период времени, мм. При наведении курсора мыши на число - период времени, за который выпало указанное количество осадков.
R24 - Количество осадков - Количество выпавших осадков за 24 часа, мм.
S - Снежный покров - Высота снежного покрова, см. При наведении курсора мыши на число - состояние снежного покрова и степень покрытия местности в баллах.